Theta_e
333 334 335 335 336 336 335 335 335 334 334 334 331 330 331 330 331 331 331 331 330 330 331 330 330 329 328 328 328 329 330 332 333 334 333 332 333 329 325 326 327 329 330 331 331 329 328 328 327 326 322 321 323 324 324 324 324 324 325 327 329 328 328 327 320 316 315 314 311 307 305 303 302 302 304 307 309 309 311 314 316 317 317 317 317
334 335 334 335 335 336 336 335 335 334 333 333 332 331 331 330 330 330 330 330 328 329 330 330 330 330 328 327 328 328 329 331 332 333 333 332 333 331 327 326 327 328 329 331 332 331 329 329 328 327 325 324 324 324 323 324 323 323 325 326 328 329 328 328 323 318 316 315 313 310 306 304 303 301 301 304 308 308 308 311 313 315 316 315 315
335 336 334 334 334 336 337 335 335 336 335 333 331 331 331 330 329 328 328 327 327 328 328 329 330 330 328 328 327 328 328 330 331 331 332 331 332 332 329 327 327 326 328 329 331 331 331 330 329 328 327 326 326 324 323 324 324 323 324 325 327 328 328 328 325 321 317 316 315 312 308 305 303 302 301 302 306 309 308 308 311 313 314 314 315
336 337 335 333 334 336 337 335 336 337 336 334 331 331 331 330 327 327 327 327 327 327 327 328 329 329 328 328 327 327 327 329 330 330 330 330 330 331 331 329 328 327 327 328 330 331 331 331 330 329 329 328 326 326 323 322 324 324 324 325 325 326 327 328 327 324 320 317 316 315 312 307 304 302 301 301 303 305 307 308 311 312 312 312 313
334 336 334 332 334 336 337 337 337 337 336 334 333 332 330 330 328 327 327 328 329 328 328 328 328 328 328 328 327 327 327 327 328 329 329 330 329 330 331 331 329 328 327 327 327 329 331 331 330 330 330 329 327 327 324 321 324 324 323 325 323 323 326 327 327 326 324 320 317 316 314 311 306 304 301 300 300 302 306 308 310 311 310 308 309
333 334 334 332 334 336 337 338 337 337 336 334 333 332 331 330 329 328 328 328 329 329 329 328 328 329 329 329 328 328 328 327 327 328 329 330 329 328 330 332 332 331 329 327 327 327 329 330 330 331 330 330 329 328 326 323 324 325 323 324 324 322 324 326 326 327 326 324 319 316 316 314 310 306 303 300 300 300 303 305 307 308 307 306 307
334 334 334 332 334 336 337 338 337 337 336 333 332 332 331 330 330 329 329 329 330 330 330 331 330 330 330 330 330 329 329 328 328 328 328 329 329 329 329 329 331 332 332 331 328 327 328 328 329 330 331 331 329 328 328 327 327 326 323 322 323 322 323 325 326 327 327 326 323 319 316 316 314 310 306 302 300 299 300 302 304 305 305 306 306
334 334 334 333 333 336 337 338 338 336 335 334 332 332 332 332 331 330 330 330 330 331 332 332 330 329 330 330 329 330 330 330 329 328 328 329 329 329 329 329 330 331 332 333 332 329 327 327 328 328 329 330 329 329 330 328 328 327 325 322 322 323 322 323 326 327 327 327 325 322 319 316 316 314 310 306 302 300 299 300 301 301 303 305 306
334 334 335 335 335 336 337 337 337 336 336 336 333 333 332 332 332 332 331 331 330 331 332 332 331 331 330 330 329 329 330 330 329 329 328 328 328 328 329 329 329 330 331 332 333 332 330 328 328 328 328 328 328 328 329 330 329 328 328 326 325 324 321 320 325 328 327 327 326 324 322 319 318 316 313 309 304 301 299 298 299 300 302 303 304
334 334 336 335 335 336 336 336 336 336 336 336 334 333 333 332 334 334 332 332 330 330 331 332 333 333 331 330 329 329 330 330 329 329 328 327 328 328 328 328 329 330 331 331 332 333 332 331 329 329 328 328 328 327 328 329 330 329 329 328 327 326 320 316 323 328 326 326 326 326 325 322 320 318 316 312 307 303 300 298 298 299 300 301 301
332 334 335 334 335 335 335 335 335 336 335 336 335 334 334 335 335 334 333 332 331 330 332 333 333 333 332 331 330 329 330 330 329 328 328 328 327 327 328 328 329 330 330 331 331 331 333 332 331 330 329 328 327 327 327 327 328 329 330 329 328 328 325 319 319 323 325 326 326 327 326 325 324 322 319 315 310 306 302 299 298 298 299 300 300
330 331 332 332 334 333 334 335 334 335 334 334 334 334 335 336 336 334 332 332 332 333 334 333 333 332 331 331 330 329 330 330 329 329 328 329 329 328 329 328 329 330 330 330 330 331 331 332 332 332 332 331 329 329 328 327 327 328 329 330 329 329 329 326 321 319 320 324 327 328 327 326 326 325 323 320 315 310 305 301 299 298 298 299 299
326 327 328 329 330 331 334 334 333 333 332 333 332 333 334 336 336 333 330 331 331 332 334 332 332 332 330 329 329 327 327 328 327 328 329 329 329 329 330 330 331 331 330 331 330 330 330 331 331 332 332 332 331 330 329 328 327 327 327 329 330 330 330 329 328 325 320 321 324 326 327 327 326 326 326 323 319 314 310 305 300 299 299 299 299
325 326 326 326 326 328 331 333 333 332 331 331 332 332 333 334 334 331 328 330 329 331 334 333 332 332 329 330 331 329 328 327 326 327 329 328 328 329 330 330 331 331 332 332 332 331 330 330 330 330 330 330 331 331 329 329 329 328 327 327 328 330 330 330 330 330 327 325 323 323 325 325 324 325 326 326 322 317 314 310 304 299 299 299 299
323 324 324 325 325 325 327 329 331 331 331 332 331 330 330 330 331 330 329 329 329 331 333 332 332 331 329 330 332 332 332 330 327 327 329 329 327 328 329 329 330 331 332 332 332 332 331 330 329 330 330 330 330 331 330 330 329 329 328 328 327 327 329 331 331 330 330 329 328 325 324 324 323 324 324 326 325 320 316 313 308 302 299 300 300
323 322 322 323 324 324 325 327 328 328 329 330 330 330 330 329 330 332 331 330 329 330 331 331 330 330 330 331 332 332 334 332 330 330 330 328 327 327 327 328 329 329 330 331 331 332 332 330 330 330 330 330 331 331 331 331 330 329 327 326 326 327 327 329 330 331 331 331 330 329 328 327 325 325 324 324 325 324 320 317 313 306 301 299 300
323 322 322 322 322 323 324 325 326 326 327 327 327 328 328 329 330 331 332 331 330 329 330 331 330 329 329 331 332 333 333 331 330 332 329 326 327 327 327 327 328 329 329 329 329 330 331 332 332 332 332 332 332 331 331 331 330 330 328 325 325 327 328 328 328 329 331 332 331 331 330 329 328 328 326 325 324 325 323 321 317 311 305 300 299
322 321 321 321 321 321 322 323 324 324 325 324 324 324 324 325 327 328 329 330 330 328 328 329 330 329 329 330 331 331 331 330 330 332 330 327 326 327 328 327 328 329 329 330 330 329 330 330 331 333 334 333 333 333 331 331 330 330 330 329 327 327 328 329 328 328 329 330 331 332 331 330 330 329 329 327 326 325 325 324 321 316 310 304 299
322 321 321 320 320 320 321 322 322 322 322 322 322 323 322 323 324 325 326 327 329 328 327 327 329 328 328 329 330 328 328 329 329 330 330 329 328 328 329 329 330 330 329 328 329 328 329 329 330 331 332 334 333 333 333 331 330 330 330 330 330 329 329 329 329 329 329 329 331 332 332 331 330 330 329 329 328 327 326 325 323 320 315 309 303
322 322 321 321 320 320 320 320 320 319 320 321 321 322 322 322 323 323 324 324 326 327 326 326 328 328 327 327 328 327 327 327 327 327 326 328 329 329 328 327 327 327 327 327 328 328 328 327 328 328 329 331 331 332 332 332 331 331 330 330 330 330 329 330 330 330 328 328 330 332 332 332 331 330 330 329 329 328 327 326 325 323 319 314 307
322 320 318 318 318 317 317 316 316 316 316 317 319 320 321 322 323 323 323 323 324 324 324 324 325 326 325 325 326 327 326 326 326 325 325 327 328 328 328 327 326 326 325 325 326 325 324 323 326 328 329 328 329 330 331 332 332 332 331 331 331 331 331 330 330 330 328 327 328 330 332 332 331 330 330 329 329 329 328 327 326 325 322 319 313
319 317 315 315 315 314 314 314 314 313 314 314 315 317 318 319 320 321 321 322 322 322 322 322 321 322 322 323 324 324 325 325 325 324 324 325 325 325 326 325 325 325 323 322 323 323 321 320 322 324 325 327 327 328 330 331 331 332 332 332 333 333 331 329 329 328 327 327 328 328 330 331 331 331 331 330 329 329 329 328 327 326 324 322 318
317 316 315 315 315 314 314 314 314 314 314 314 315 315 316 317 317 318 318 319 319 319 319 319 320 319 319 319 319 320 321 321 321 321 320 321 321 321 320 318 318 318 318 320 322 322 320 319 317 316 319 323 326 328 329 330 330 331 332 332 333 333 330 327 327 327 327 327 328 328 328 329 330 332 332 330 330 330 329 328 328 327 325 323 322
317 316 316 316 315 315 315 314 314 315 314 314 314 314 315 316 316 316 317 317 317 317 317 316 317 317 317 316 316 317 318 318 317 317 317 318 317 316 315 315 315 315 315 315 316 318 318 319 317 315 316 319 323 325 327 329 330 330 331 331 331 330 329 328 327 327 327 327 327 328 328 328 329 330 331 331 331 331 330 329 328 326 326 324 323
316 317 317 316 316 316 315 315 315 315 315 314 314 315 315 315 315 316 316 316 316 316 315 315 314 314 314 314 314 315 316 315 315 316 316 316 316 316 315 315 315 315 313 313 312 313 315 317 317 317 318 318 321 324 326 327 329 329 329 329 328 327 327 327 327 327 327 327 327 327 328 328 328 328 330 330 331 331 330 330 329 327 326 325 323
317 317 316 316 317 316 315 314 314 315 315 315 315 315 315 314 315 316 315 315 316 315 315 314 314 313 313 313 312 313 313 313 314 314 314 314 315 316 315 314 314 314 313 313 312 312 314 315 316 317 318 319 321 323 324 326 327 327 327 327 326 326 324 324 325 327 327 327 327 327 328 328 328 327 328 329 330 331 331 330 330 328 327 326 324
318 317 316 317 318 317 315 314 314 314 314 314 314 314 314 314 314 315 315 315 315 314 314 313 314 313 312 312 312 312 312 311 312 312 312 313 313 314 314 314 314 314 314 315 313 313 314 315 317 318 318 318 320 321 323 323 324 325 325 325 326 326 324 323 324 325 325 325 326 327 327 327 327 327 327 328 329 330 331 330 330 330 328 327 326
319 317 316 318 318 316 316 315 314 314 314 314 314 314 314 314 314 315 315 315 315 315 314 314 314 314 312 312 312 313 311 311 311 312 312 312 313 313 313 314 313 313 314 314 314 315 315 314 316 317 318 319 319 321 322 322 323 324 324 325 326 326 326 326 325 324 323 324 324 326 328 328 327 328 327 327 327 328 330 331 330 330 329 328 327
320 318 317 318 318 317 317 316 315 314 314 314 314 314 314 314 315 315 315 315 315 314 314 313 313 313 312 311 311 312 311 310 311 312 312 312 312 312 313 313 313 313 313 313 314 315 315 315 315 315 316 318 320 321 322 322 322 323 323 324 325 325 326 326 326 325 324 324 323 324 326 328 328 328 328 328 327 327 328 329 330 330 330 329 328
321 319 317 318 318 318 318 317 316 315 315 314 314 313 314 314 314 314 314 314 314 314 313 313 312 311 311 311 310 311 311 310 311 312 312 312 312 312 313 313 313 314 314 314 314 314 315 316 315 315 315 316 317 318 319 320 320 320 320 321 322 323 324 323 323 324 324 323 322 321 322 325 327 327 327 327 327 327 327 327 328 329 329 329 328
321 320 318 318 318 318 318 318 317 316 315 315 314 314 314 314 314 313 314 314 314 313 312 312 312 312 311 311 310 310 310 309 310 312 312 312 311 311 311 311 312 313 314 314 314 314 314 315 316 315 315 315 315 315 315 316 316 316 316 317 318 319 320 321 321 322 322 321 321 320 319 320 323 324 324 325 325 325 326 326 327 327 328 329 329
321 320 319 319 318 318 318 318 317 316 316 315 315 315 315 314 314 313 313 313 313 313 312 311 311 311 311 311 310 310 309 308 309 310 310 310 311 311 310 310 311 312 312 313 313 313 313 314 314 314 314 314 314 314 314 314 314 315 316 317 318 319 320 321 321 321 321 321 321 321 320 318 320 322 322 322 322 323 324 325 325 327 327 328 329
321 320 319 319 318 318 318 318 318 317 316 316 315 315 315 314 314 313 312 312 312 312 312 311 311 310 310 309 309 310 309 309 309 309 309 310 310 310 310 311 311 311 311 312 312 312 312 312 313 313 313 313 313 313 313 313 314 315 316 317 318 319 320 321 321 321 321 321 321 322 322 322 321 321 322 322 322 322 322 323 324 325 326 327 327
321 321 319 319 319 318 318 318 318 317 316 316 315 315 315 314 314 313 312 312 311 311 311 311 311 310 310 309 309 310 309 308 309 308 308 309 309 308 309 310 310 310 310 310 310 310 310 310 310 311 311 311 312 312 312 313 313 314 314 314 314 315 316 317 318 319 319 319 321 322 322 323 322 322 322 322 323 323 323 323 323 324 325 326 326
320 320 319 319 319 318 318 318 318 317 317 316 315 315 315 315 314 313 313 312 311 311 311 310 310 310 310 310 309 309 309 308 309 309 308 308 308 308 308 308 308 309 309 310 310 310 311 310 310 310 310 311 311 311 311 311 311 311 311 311 312 312 313 313 314 315 315 316 318 320 321 321 321 320 321 322 323 324 323 323 324 324 325 325 326
320 319 318 319 319 319 318 318 318 317 317 316 315 314 314 315 314 313 313 312 312 312 311 310 309 309 309 309 309 309 308 308 308 308 308 308 308 308 307 307 307 307 308 309 310 310 310 311 310 310 310 310 310 310 310 310 310 310 310 310 311 312 312 313 313 313 315 316 318 319 320 320 320 320 319 320 322 323 323 324 323 324 324 324 325
321 320 318 318 319 319 319 318 318 318 317 317 316 315 314 314 314 313 313 312 312 312 311 310 309 308 308 308 308 307 307 307 308 308 308 307 307 307 306 306 306 306 306 307 307 308 308 309 309 309 309 309 309 309 309 310 309 309 310 310 310 311 312 313 314 314 316 317 318 319 319 319 318 318 317 317 318 320 321 323 323 323 324 324 324
321 321 320 319 319 320 319 319 318 318 317 317 316 315 315 314 314 313 313 312 312 311 310 310 308 308 307 307 306 306 306 306 306 307 307 307 307 306 306 306 306 306 306 307 306 307 307 307 307 308 308 308 308 309 309 309 310 310 310 310 310 310 311 312 313 314 315 317 318 319 318 318 318 318 317 316 316 316 318 320 322 322 322 323 324
322 321 320 320 319 319 319 319 319 319 318 317 316 315 315 314 314 313 313 312 311 311 309 308 307 306 306 305 305 305 304 305 305 305 305 305 305 304 304 305 305 305 306 306 306 306 306 306 307 307 307 307 308 308 308 308 309 309 309 310 310 311 312 313 314 315 315 316 317 318 318 318 318 319 318 317 316 315 316 318 320 321 322 323 323
322 321 320 319 320 319 319 319 319 319 318 317 316 315 315 314 314 313 312 312 311 310 308 307 305 305 304 304 304 303 303 304 303 302 301 300 300 300 301 301 302 303 304 304 305 306 306 306 306 306 307 307 307 307 308 308 308 309 309 311 312 313 313 313 313 313 313 313 315 315 316 317 319 319 319 318 317 317 316 315 316 318 320 322 323
323 322 321 320 320 320 320 320 319 319 318 317 316 315 315 314 313 313 312 311 310 309 307 306 304 304 303 303 303 302 302 302 299 295 294 294 294 296 298 299 300 301 302 302 303 304 305 305 305 306 306 306 307 307 307 308 309 309 309 310 311 311 311 311 311 310 311 311 312 313 314 317 318 319 319 319 319 320 319 316 314 315 318 321 323
323 323 322 321 320 320 321 321 319 319 318 317 315 315 314 313 313 312 311 310 308 307 306 305 304 303 303 302 302 302 301 299 296 295 294 293 294 294 295 297 298 298 299 300 301 301 302 303 303 304 304 305 306 306 306 307 307 307 308 308 309 309 310 311 311 311 311 311 312 313 313 315 316 316 317 317 319 320 320 319 317 318 319 320 322
323 322 322 321 321 321 321 320 319 318 317 316 315 313 312 312 312 311 309 308 307 305 305 304 304 303 303 302 302 302 301 299 299 299 298 296 296 296 296 296 296 296 296 297 298 299 300 301 301 302 303 303 304 305 306 306 306 306 307 308 308 309 309 310 310 311 311 312 312 313 314 315 316 316 316 316 317 319 320 320 321 320 320 319 320
321 322 322 322 321 321 320 319 318 317 316 314 313 312 311 310 309 308 308 306 306 304 304 303 303 303 302 302 302 302 301 301 300 300 299 298 298 298 297 296 296 295 295 296 297 298 298 299 300 301 301 302 303 304 305 305 306 306 306 307 307 307 307 308 309 310 310 310 311 312 313 313 314 315 315 316 316 317 319 320 320 321 320 319 319
320 321 321 321 321 320 319 318 316 315 314 313 312 311 310 309 307 306 307 306 305 304 303 303 302 302 302 302 301 301 301 301 300 299 299 299 300 299 298 297 297 297 297 297 297 297 297 298 299 299 300 300 301 302 303 303 304 304 305 305 305 305 305 306 307 308 308 309 309 310 311 311 312 313 313 314 315 316 316 317 318 319 319 318 318
319 319 319 319 319 319 318 317 316 314 313 312 310 310 309 307 305 305 305 305 304 303 303 302 302 302 301 301 301 301 301 301 300 300 300 300 300 299 298 298 298 298 298 298 298 298 297 297 298 298 299 299 300 300 301 301 301 302 302 303 303 304 304 304 304 305 306 306 306 307 309 309 310 311 312 313 314 314 316 317 317 317 318 317 317
317 317 317 318 318 318 317 317 315 312 310 310 310 308 307 305 303 303 304 304 303 302 302 302 301 301 301 301 301 300 301 300 300 300 300 299 299 298 297 297 297 297 298 298 299 299 298 298 298 299 299 299 300 300 300 300 300 300 300 300 301 301 302 302 303 303 303 303 304 305 307 308 308 309 310 311 312 313 314 317 317 317 317 316 316
316 316 317 317 318 317 317 317 314 311 309 310 308 306 304 302 300 300 302 303 302 302 302 302 301 301 301 301 301 301 301 301 301 300 298 298 297 297 296 296 297 297 298 298 298 298 298 298 298 298 298 298 298 299 298 298 297 297 297 297 298 299 300 301 301 302 302 302 303 304 305 306 307 308 308 310 311 311 313 316 317 316 315 314 313
315 315 315 316 317 317 317 316 313 310 308 307 305 303 302 299 298 299 301 302 302 302 302 302 302 301 301 301 301 300 300 300 300 299 298 297 297 296 296 296 297 297 297 297 297 297 297 297 297 297 297 296 296 296 296 296 295 295 295 296 297 298 299 300 301 301 301 302 302 303 304 305 306 307 308 308 309 310 312 314 315 314 314 313 312
314 314 315 315 316 316 316 315 312 308 306 304 303 301 299 297 297 299 301 301 301 302 302 301 301 301 301 301 300 299 300 299 299 298 297 297 296 296 296 296 296 297 297 297 297 297 297 297 297 296 296 296 296 295 295 295 295 294 294 295 296 297 298 299 300 300 300 301 302 302 303 304 305 306 307 308 309 310 310 311 313 312 312 311 310
313 313 314 314 315 315 315 312 309 306 305 303 301 299 297 295 297 299 300 300 300 301 300 300 301 301 300 300 300 299 299 298 298 297 297 296 295 295 296 296 296 296 296 296 296 295 296 296 296 296 296 296 296 296 296 296 296 295 295 295 296 297 297 298 299 299 299 300 301 301 302 303 304 305 306 307 308 309 309 310 312 311 311 310 309
Wind_Speed
5 5 5 4 3 1 2 2 3 3 4 4 4 4 4 4 5 6 6 6 8 8 9 8 7 7 6 7 7 7 6 5 5 5 6 6 6 5 3 4 7 9 8 7 6 5 6 7 6 4 3 6 6 6 6 6 6 6 6 5 6 5 2 1 1 3 5 5 7 8 8 9 9 8 8 7 7 7 7 8 8 8 9 9 10
5 4 4 3 2 1 2 3 4 3 4 4 4 3 3 4 5 6 5 5 7 8 9 8 8 8 8 8 8 7 6 6 7 7 7 6 7 7 3 3 6 7 8 9 7 6 6 6 7 5 4 5 5 6 6 6 6 6 6 6 7 6 3 2 2 1 3 5 6 7 7 8 8 8 7 7 7 7 7 7 7 8 8 8 9
6 4 3 2 2 1 3 5 6 5 4 4 4 2 2 4 5 6 5 6 7 8 9 9 8 9 9 9 8 8 8 7 8 8 8 7 8 8 6 5 6 7 8 9 10 8 7 7 7 6 5 6 6 6 6 7 7 6 7 8 7 7 5 3 3 1 1 3 4 5 6 6 7 7 7 7 6 6 6 7 7 7 7 8 9
6 5 4 3 2 2 4 6 7 8 6 5 4 2 3 3 3 5 4 6 7 7 7 7 7 9 9 9 9 9 9 8 9 9 9 8 8 9 8 7 7 7 8 9 10 10 9 8 7 7 6 6 6 6 7 7 7 7 8 8 7 7 7 5 4 2 1 1 3 4 4 5 5 6 6 6 5 5 5 6 7 7 7 7 7
5 4 5 4 2 3 6 6 7 9 9 7 5 4 4 3 3 5 5 6 7 7 7 7 7 7 7 7 8 9 9 9 10 10 10 9 9 9 9 9 8 9 9 9 10 10 11 10 9 8 8 7 6 7 7 7 8 8 8 9 7 8 8 7 5 3 1 1 0 1 3 4 4 4 5 5 5 4 4 5 5 5 5 6 6
2 4 4 3 2 5 6 6 7 9 10 9 7 6 5 5 6 6 7 7 7 7 6 5 5 4 4 5 6 8 10 10 10 11 10 9 9 9 9 9 10 11 11 10 10 11 11 11 11 10 9 9 7 8 7 7 7 6 9 10 8 9 10 8 7 5 3 2 2 1 1 2 3 3 4 4 4 4 4 4 4 4 4 5 6
1 3 3 3 4 7 7 6 7 8 10 10 8 7 7 7 8 8 8 8 7 6 4 3 4 3 3 3 4 7 9 10 11 11 10 10 10 9 9 9 10 11 12 13 12 12 12 11 12 11 11 10 8 8 8 7 7 5 5 9 9 9 11 11 8 7 6 4 3 3 2 0 2 2 2 3 3 4 4 4 4 4 4 5 6
2 2 3 4 6 7 6 5 5 8 10 11 9 9 8 8 7 8 10 8 7 7 5 3 4 4 3 3 4 7 8 9 11 11 11 11 11 10 9 9 9 10 11 13 14 13 13 12 12 12 12 12 10 9 9 8 9 7 4 6 8 9 12 13 10 9 9 6 5 5 4 3 1 1 1 2 2 3 4 4 4 4 4 4 5
3 3 4 6 6 6 5 5 5 8 10 10 10 9 9 9 8 8 9 9 8 9 7 5 4 4 4 4 5 7 8 9 10 11 12 13 12 11 11 10 10 10 10 11 13 14 14 13 13 13 13 13 11 9 10 10 9 8 6 7 8 8 9 14 12 10 10 9 7 6 7 6 3 2 1 1 1 2 3 4 4 4 4 4 5
4 4 5 5 5 5 5 5 7 8 9 9 10 10 9 9 9 9 9 9 10 11 8 5 4 4 5 5 7 8 9 9 9 10 12 13 13 12 11 11 10 10 10 10 11 12 14 14 13 13 14 14 13 11 10 11 11 11 10 9 9 8 6 11 15 12 10 10 9 7 8 8 5 4 3 2 2 2 3 4 4 4 4 4 5
3 3 3 4 4 5 6 6 7 8 9 10 10 10 10 9 8 9 10 9 9 6 6 5 4 4 4 6 8 9 9 8 10 11 11 12 13 12 12 10 10 10 10 11 10 10 12 13 13 15 16 16 16 14 12 13 13 13 12 11 11 10 7 8 13 14 12 11 11 10 10 9 6 5 4 4 4 3 3 4 4 4 4 5 5
2 2 3 4 4 5 6 6 7 9 10 11 12 11 10 9 8 8 9 10 9 3 4 5 4 4 5 6 7 7 7 7 9 9 10 11 12 12 11 10 9 10 10 11 11 10 11 12 13 15 17 17 16 16 15 14 15 14 14 14 13 13 11 9 10 13 14 13 13 12 12 11 9 8 7 5 5 5 4 5 5 5 5 5 5
1 1 2 4 4 5 5 5 7 8 9 10 12 13 11 9 9 11 11 11 10 6 4 5 3 2 4 4 5 6 5 7 9 9 9 11 12 13 13 10 10 11 11 11 12 12 11 12 12 13 15 16 17 17 16 16 16 16 15 15 15 14 14 13 12 12 13 14 14 14 15 14 12 11 10 8 7 6 6 5 6 6 6 6 6
2 1 0 3 4 4 4 4 5 5 5 6 9 11 11 9 10 13 13 11 10 8 6 4 2 1 2 3 4 4 4 7 10 9 10 10 11 15 14 10 11 11 11 12 12 12 13 12 12 12 12 13 15 17 17 17 17 18 17 17 17 16 16 15 15 14 13 13 14 15 16 16 14 13 13 11 10 9 8 7 7 7 7 7 7
3 2 1 0 1 2 3 3 4 3 3 4 6 8 8 7 8 9 9 10 10 8 7 4 3 3 2 2 1 2 3 4 7 8 9 10 11 15 13 9 10 11 11 12 12 12 13 13 13 13 12 11 11 14 16 18 18 18 19 19 19 19 19 18 17 16 15 14 15 15 16 16 15 14 15 14 13 11 10 9 8 8 9 9 8
3 2 2 2 1 0 0 1 1 2 3 3 3 3 4 4 3 4 5 7 6 4 3 4 5 5 2 1 0 1 1 1 3 4 6 8 9 11 11 8 8 9 9 11 13 12 13 14 14 13 13 12 11 12 13 16 18 18 18 19 20 20 21 20 19 18 18 17 16 17 17 17 16 15 15 15 15 14 13 11 10 9 9 10 10
4 4 4 4 2 2 1 2 2 1 0 0 0 1 1 1 1 1 1 2 2 1 3 4 6 6 4 2 1 0 1 2 2 2 3 6 7 7 8 8 8 7 7 9 11 12 11 12 14 14 13 13 13 13 13 14 15 16 16 17 18 19 21 21 21 20 20 20 19 18 19 20 19 17 17 16 16 16 15 14 12 11 10 10 10
6 5 5 5 4 3 2 3 4 4 3 1 2 3 2 2 4 4 3 3 3 2 5 5 4 6 7 4 1 1 1 3 3 2 3 5 7 7 7 8 8 8 8 8 11 14 13 12 12 12 13 12 12 13 14 14 14 15 15 16 17 18 19 19 20 21 22 22 20 18 19 21 21 20 19 19 18 18 17 16 15 13 12 11 11
6 6 6 6 5 4 4 4 4 4 3 3 3 4 4 5 6 6 5 6 5 3 5 4 3 2 4 5 4 3 3 2 2 2 3 3 6 6 5 5 6 7 8 9 11 13 12 12 15 14 10 9 10 11 12 13 14 15 16 16 16 17 17 17 18 20 21 22 22 20 19 20 21 21 21 20 20 20 20 19 17 16 14 13 12
6 7 6 6 6 5 5 5 4 4 4 4 5 5 6 7 7 7 6 7 7 5 5 5 4 4 3 2 3 3 4 4 5 4 4 3 3 4 4 5 6 8 8 8 10 11 11 12 13 15 14 10 10 11 10 10 13 15 16 17 17 17 18 19 18 18 19 22 23 23 21 21 21 21 21 20 20 21 22 21 20 19 18 16 14
7 7 7 7 7 6 6 6 6 6 5 6 6 6 7 7 7 7 7 7 7 7 6 5 5 4 3 3 2 3 4 3 5 6 5 4 3 2 3 4 6 7 7 8 10 11 12 13 12 13 15 14 13 12 10 10 11 12 14 16 17 17 19 21 22 20 19 21 23 24 23 23 22 22 22 21 20 21 22 23 23 22 20 19 18
8 8 8 8 7 7 7 6 7 7 7 7 6 6 6 7 7 7 7 7 7 8 7 7 6 5 4 3 1 1 2 2 3 4 4 4 4 3 4 4 4 5 6 8 10 9 10 12 12 13 16 15 15 13 12 12 13 12 12 13 13 14 16 18 21 21 21 21 22 23 24 24 24 23 23 23 22 22 23 24 25 24 23 21 21
8 8 8 7 7 7 7 7 6 6 7 6 6 6 6 6 7 7 8 8 8 8 8 8 7 6 6 5 5 5 3 2 2 3 4 4 4 4 5 6 6 6 7 7 8 9 11 12 12 14 16 16 15 14 13 12 13 13 13 12 12 12 13 14 16 17 18 20 21 23 24 25 25 24 24 25 24 23 24 24 24 25 24 22 21
8 8 7 7 7 7 6 6 6 6 6 6 6 6 6 7 7 7 8 8 8 8 8 9 8 7 7 7 6 5 5 5 5 4 5 5 5 5 6 7 7 7 8 9 10 12 13 12 11 13 15 16 16 15 14 12 12 12 13 14 14 15 15 14 13 13 14 17 18 20 21 23 24 25 25 25 25 25 25 24 24 24 24 23 22
9 8 8 7 7 6 6 6 6 6 6 6 6 6 6 7 7 8 8 8 9 9 8 9 8 8 7 6 6 5 5 5 5 4 4 5 5 5 6 7 7 8 9 9 10 11 12 13 14 14 14 15 16 13 11 10 9 9 10 12 12 12 14 15 15 15 14 15 16 17 18 20 22 24 25 25 25 25 26 26 26 25 26 26 25
9 9 9 8 7 7 7 7 7 6 6 6 6 6 6 7 7 7 8 8 8 8 8 8 8 8 7 6 6 5 5 4 5 5 5 5 5 6 7 7 7 8 8 8 8 9 9 9 10 11 11 12 10 8 7 8 9 8 8 9 10 11 14 15 16 18 17 16 16 17 18 18 20 22 24 25 25 26 27 28 28 28 28 28 27
11 10 10 9 8 8 8 8 8 7 6 6 6 6 6 6 7 7 7 7 6 7 7 7 7 7 7 6 5 5 6 6 5 5 6 6 6 6 6 6 6 6 6 6 7 8 9 9 7 7 8 7 7 7 6 6 8 9 9 10 11 13 16 16 16 18 19 19 19 20 20 19 19 21 22 24 26 27 28 28 30 30 30 30 29
12 13 12 10 10 9 9 9 9 8 7 6 5 5 5 5 6 6 5 5 5 5 5 6 6 6 6 6 5 5 6 7 6 6 6 7 6 6 6 6 6 5 4 5 5 5 8 10 9 7 6 6 7 6 6 6 7 8 8 10 11 13 15 15 15 15 15 16 16 18 20 20 20 20 21 22 23 26 29 30 30 32 33 32 31
15 15 14 13 11 11 10 10 9 9 8 7 6 6 5 5 5 5 5 4 4 4 4 4 4 4 4 5 5 4 5 7 6 6 7 7 7 7 7 6 6 5 5 5 5 6 7 8 10 10 8 9 9 7 7 7 8 8 9 10 12 12 13 13 13 14 14 15 14 14 17 18 19 19 19 20 21 23 26 29 31 32 33 35 33
17 17 16 15 14 13 11 11 10 10 9 9 8 7 6 5 5 4 4 4 4 4 3 3 3 2 2 3 3 3 4 5 5 5 6 6 7 7 7 7 7 6 6 6 6 8 9 7 8 9 11 13 12 10 9 9 10 11 11 12 12 13 14 14 14 14 16 18 18 16 16 16 17 17 17 18 19 20 22 26 30 32 34 35 35
17 18 18 17 16 15 13 12 12 11 10 10 9 9 8 7 6 5 4 4 4 3 3 2 2 1 1 1 1 1 2 4 4 4 4 5 5 7 7 8 8 7 8 8 6 8 10 10 9 10 12 14 14 13 13 13 14 15 15 14 14 15 17 18 18 18 19 20 20 20 19 18 18 17 17 17 18 19 19 21 25 30 33 35 36
18 19 19 18 18 17 15 14 14 13 12 12 11 10 9 8 7 6 6 5 5 4 3 2 2 2 1 1 1 1 2 3 3 3 4 4 4 5 6 7 7 7 8 9 8 9 11 12 12 13 13 13 13 13 14 14 15 15 14 15 15 16 17 18 19 20 20 18 18 19 19 19 20 21 21 20 20 20 20 21 23 26 30 34 37
18 19 19 19 19 18 17 16 15 15 14 13 12 11 10 9 8 7 7 7 6 5 4 4 3 3 2 2 2 2 2 3 4 4 4 4 5 6 6 6 6 6 7 9 10 10 12 12 12 13 13 14 14 14 14 14 14 14 14 15 15 16 16 16 17 18 19 19 19 19 18 19 20 22 23 24 23 23 23 24 24 25 27 31 35
19 20 20 20 20 19 18 18 17 16 15 15 14 13 12 11 11 9 9 8 7 6 5 5 5 4 3 3 3 2 3 4 5 5 5 5 6 6 6 6 7 7 8 9 10 11 12 13 13 14 13 13 13 13 13 14 14 14 15 16 16 16 17 17 17 17 18 18 18 18 18 18 19 20 22 23 24 25 25 26 27 27 28 29 32
20 21 20 20 21 20 20 19 18 18 17 16 16 15 14 14 13 11 10 9 8 8 7 6 5 5 4 4 4 3 4 4 5 6 6 6 6 7 6 7 8 9 9 9 10 12 13 13 13 13 13 12 13 14 14 15 15 15 16 16 16 17 17 18 18 18 19 20 20 19 19 20 20 20 21 22 24 26 26 26 27 28 29 30 31
18 20 20 20 21 22 21 21 20 20 19 18 17 16 16 15 14 12 12 11 10 9 8 7 6 5 5 5 4 4 4 5 5 6 6 6 6 7 8 8 9 9 9 9 10 11 13 14 14 14 14 14 15 15 15 15 15 15 16 16 16 16 16 17 17 18 19 19 19 18 19 20 20 21 22 23 24 25 26 28 28 29 30 31 32
18 20 20 21 22 22 22 23 22 22 21 21 19 18 17 16 15 13 12 12 11 9 8 7 6 6 5 5 5 4 4 5 5 6 6 6 8 9 9 9 10 10 10 10 11 12 13 15 15 15 15 15 16 15 15 15 15 15 15 15 15 16 16 16 16 17 17 17 17 18 19 21 22 23 25 26 26 25 26 27 29 29 30 31 32
19 20 21 21 23 24 24 24 24 23 23 21 20 18 17 16 15 14 13 12 11 10 9 8 7 6 6 5 5 5 5 5 5 6 6 7 8 9 10 11 11 12 11 12 12 13 14 15 16 16 16 16 16 15 15 15 15 15 14 15 15 15 16 16 16 16 17 17 17 19 20 21 22 23 23 24 26 28 27 27 28 29 30 31 31
19 20 22 22 24 26 26 24 24 23 22 21 20 18 17 16 15 14 13 12 11 10 9 8 7 7 6 6 6 5 5 5 5 5 5 7 8 9 10 11 12 12 13 13 13 13 14 15 15 15 15 15 15 15 15 14 15 15 15 15 14 13 13 13 13 13 15 16 17 19 21 23 24 23 21 21 23 26 28 27 26 28 29 30 31
21 20 21 23 25 27 26 24 23 22 21 21 20 18 17 16 14 13 12 11 11 10 8 8 8 7 7 7 7 6 6 6 6 5 6 7 8 9 10 11 12 13 13 14 14 14 15 15 15 15 15 15 15 15 14 14 14 14 13 12 13 13 13 13 14 15 16 18 19 20 21 22 23 23 23 24 24 24 27 29 28 27 27 29 30
19 18 18 20 24 27 26 23 23 22 22 21 20 20 18 16 14 13 12 11 10 10 9 8 8 8 8 8 7 8 10 11 10 10 10 10 9 9 10 10 11 13 14 14 15 15 15 15 15 15 15 14 14 14 13 13 13 14 14 14 15 16 16 17 17 17 17 18 19 19 19 18 19 21 22 23 23 21 21 26 28 27 26 27 28
17 18 18 20 23 25 23 21 22 23 22 21 21 23 21 18 15 14 12 11 10 10 9 8 8 8 8 8 9 12 14 13 13 12 10 10 10 10 10 10 11 12 14 15 15 15 15 16 16 15 15 15 15 14 15 14 14 15 16 16 17 17 17 17 16 15 15 16 18 19 19 18 19 20 20 20 21 19 18 21 24 24 24 24 25
15 17 18 19 21 21 19 20 22 22 20 20 23 26 24 20 16 14 13 12 11 10 9 8 9 9 9 9 9 11 13 12 12 10 9 11 12 11 11 11 12 14 15 16 16 17 16 17 17 16 16 17 16 16 16 16 15 16 16 15 15 16 15 15 14 13 12 13 15 17 17 16 17 18 18 18 18 17 17 20 22 21 22 22 22
13 15 16 17 18 18 18 20 20 19 18 21 25 27 25 23 19 14 12 11 10 10 9 9 9 8 9 9 8 9 9 10 11 10 11 14 14 12 11 13 15 16 17 17 17 17 17 18 18 18 17 18 18 17 16 15 15 15 15 15 15 16 16 16 16 15 13 13 15 18 18 17 16 18 19 19 19 18 19 20 19 19 21 22 23
11 12 13 14 15 15 16 17 17 16 18 23 27 27 26 25 22 15 11 11 11 9 9 9 9 8 8 8 9 9 9 10 11 11 12 13 12 11 12 14 17 18 19 19 19 20 20 20 20 20 19 18 18 18 16 16 17 17 17 17 17 18 18 18 18 18 16 15 16 18 19 18 17 19 20 20 19 20 22 23 21 21 21 22 24
11 12 13 14 16 15 16 18 17 16 20 25 27 27 26 24 21 16 10 10 10 8 8 9 9 9 9 9 9 9 10 10 11 10 10 10 10 11 12 15 17 19 20 21 22 23 24 25 24 23 21 20 21 20 19 18 19 18 18 18 18 18 20 20 21 21 20 19 20 20 20 18 17 18 20 20 19 20 23 24 25 24 24 23 24
11 13 14 16 18 18 19 21 20 18 22 25 26 26 24 21 19 15 10 9 8 7 8 9 9 10 10 10 10 11 11 11 12 12 11 11 12 14 15 17 18 19 20 20 20 22 24 26 27 26 24 23 22 22 20 18 19 19 18 19 19 20 22 23 23 22 21 20 19 19 20 19 18 19 21 20 19 21 22 22 24 26 25 23 23
11 13 13 15 18 19 20 20 18 18 22 26 26 24 22 18 16 12 8 8 8 8 8 9 9 10 10 10 11 11 12 12 13 13 13 13 14 16 18 18 19 19 19 19 20 22 24 26 27 28 28 27 27 27 26 26 28 27 25 23 21 19 21 22 23 22 21 18 18 20 22 22 19 20 22 21 20 21 20 19 21 23 22 20 20
12 12 13 14 16 18 19 19 18 19 24 27 25 22 19 16 14 9 7 8 8 8 9 9 10 10 10 11 11 12 12 12 14 15 16 17 17 17 18 19 19 20 20 20 20 22 24 26 27 29 30 30 31 33 33 34 35 33 29 25 21 20 22 21 20 21 21 19 18 19 22 22 20 20 22 21 21 22 21 18 19 20 19 18 18
13 13 13 13 14 15 17 18 18 20 26 28 23 20 17 15 12 8 7 7 7 8 8 9 9 10 11 12 13 14 15 15 16 17 19 18 17 17 18 19 20 22 21 21 22 22 23 24 26 28 28 28 29 31 32 31 30 29 28 26 22 22 25 23 21 22 22 21 19 18 20 21 20 19 21 21 21 24 23 19 17 16 15 16 16
14 14 13 12 12 13 14 15 15 21 27 27 21 19 17 14 11 8 4 5 6 7 8 8 9 9 10 11 14 15 16 16 17 18 18 18 16 16 17 19 22 24 22 23 24 23 22 23 23 24 25 25 26 27 27 27 25 25 27 25 22 24 28 29 26 22 18 17 17 16 18 20 20 20 20 17 15 17 20 21 19 14 9 9 11
Wind_Direction
187 183 180 163 139 145 283 215 182 206 193 196 209 198 197 199 207 210 213 220 211 206 210 206 202 209 217 223 224 220 216 209 202 196 192 188 187 194 171 151 165 166 170 187 194 180 174 178 184 193 187 174 174 184 189 193 193 173 161 161 162 182 204 125 104 65 60 63 73 82 84 86 88 88 88 87 88 92 96 97 99 96 90 89 88
178 182 161 137 128 137 282 230 187 194 200 194 207 213 207 198 209 207 200 221 215 205 212 211 208 211 211 220 226 227 222 210 211 207 200 192 184 189 192 173 169 174 178 181 189 192 183 178 186 197 184 177 184 189 191 196 198 183 178 185 175 178 197 170 151 83 57 57 62 74 83 88 90 91 90 90 92 91 94 99 103 101 95 95 93
155 162 177 156 170 185 275 256 214 207 217 208 213 215 212 215 220 219 203 209 215 207 211 213 214 218 217 219 222 228 230 218 217 216 209 196 188 199 215 204 182 178 182 180 185 190 190 184 184 191 183 183 198 203 194 193 201 195 189 197 189 178 190 189 169 172 75 66 59 68 80 86 91 95 93 95 97 96 96 100 104 104 100 98 97
146 163 224 226 189 200 254 264 237 223 223 215 216 204 224 239 218 227 217 195 205 208 211 215 217 222 223 223 220 223 230 226 222 219 218 208 197 206 214 212 203 191 185 183 186 187 189 188 186 191 190 187 197 208 208 199 201 202 194 200 205 191 190 197 190 189 188 74 55 59 73 81 87 94 96 101 106 109 105 104 107 107 106 106 106
158 182 245 247 193 225 245 249 238 225 215 208 208 203 221 233 189 209 206 191 203 206 207 212 215 228 237 238 231 227 230 229 225 221 223 221 211 209 207 208 210 207 199 191 190 189 189 189 188 193 197 197 195 203 215 201 191 201 204 204 213 208 197 196 199 199 207 221 60 51 58 71 82 92 97 106 115 121 119 116 120 122 119 118 117
174 203 229 237 221 245 242 233 234 225 211 203 202 204 209 207 193 195 195 194 198 196 199 203 205 222 241 247 248 246 244 240 237 228 223 226 226 219 210 206 204 208 209 204 199 192 190 190 189 192 197 204 203 201 209 199 189 205 211 208 212 211 205 200 200 205 216 240 235 237 15 63 77 89 97 109 120 129 139 139 137 135 132 127 124
164 203 202 218 235 243 239 232 232 217 206 203 199 204 210 210 199 187 191 197 193 187 189 201 213 222 235 253 267 263 253 248 250 241 229 227 232 232 227 222 210 204 205 209 211 203 196 194 193 193 195 201 203 201 204 203 212 232 217 210 213 211 210 206 199 204 215 241 243 230 240 216 76 80 88 102 121 134 148 156 157 151 142 137 130
170 196 206 227 236 237 237 233 219 202 202 203 201 205 209 215 209 192 194 200 192 178 177 208 234 243 257 271 278 274 264 256 254 248 237 230 230 230 230 231 224 213 208 210 217 215 208 202 201 200 200 205 204 198 201 206 223 245 234 211 217 218 215 208 200 205 215 233 244 227 214 214 195 119 102 99 125 140 152 163 171 170 159 151 142
180 197 210 224 228 229 234 230 212 200 202 205 204 208 210 215 218 210 207 215 206 182 178 201 220 238 254 268 281 287 283 269 258 251 242 234 232 230 226 226 226 222 216 216 218 217 214 209 209 209 207 212 213 203 199 204 216 228 228 219 224 230 220 209 202 203 214 227 235 222 205 203 210 209 192 160 153 154 162 168 176 180 173 167 159
175 189 206 220 224 226 232 228 217 208 209 210 209 210 213 213 217 219 217 222 214 188 175 185 195 232 258 277 288 294 290 273 261 260 251 237 231 232 229 221 221 221 217 220 221 216 214 213 213 217 217 218 220 215 202 200 206 213 219 222 229 240 230 210 207 205 211 224 231 221 209 209 218 228 222 205 201 187 181 178 180 185 181 178 175
173 180 194 217 218 220 230 227 220 218 216 218 218 216 214 215 220 224 223 233 232 192 154 168 190 228 255 280 287 290 288 275 262 258 256 248 237 233 235 225 219 223 222 224 226 220 213 213 213 216 221 222 223 223 216 205 203 205 211 217 224 235 235 216 213 213 212 222 230 224 221 228 235 241 241 230 219 208 204 198 190 191 188 183 178
173 186 194 222 224 217 223 226 225 225 220 219 224 225 220 218 221 226 228 239 248 231 165 186 208 246 263 277 287 290 278 273 275 265 256 255 248 240 237 233 226 226 229 228 230 230 219 216 216 213 216 224 225 222 220 216 210 206 207 212 218 226 232 228 221 220 217 218 225 226 230 239 245 249 252 247 236 222 216 213 207 204 199 190 182
129 179 204 227 233 223 215 222 227 226 225 225 228 230 227 220 219 227 231 236 244 249 223 206 209 264 283 278 282 296 275 259 268 275 268 258 263 259 239 230 234 231 233 233 230 232 228 223 223 217 217 226 227 222 219 218 217 216 211 211 214 218 227 230 223 223 224 221 223 225 231 242 248 250 252 252 249 236 224 221 214 212 211 203 193
61 73 208 228 230 228 220 227 232 225 226 232 232 232 231 228 228 233 237 239 242 245 231 208 178 202 289 287 278 294 288 266 260 270 279 270 273 269 247 231 237 235 235 236 233 232 231 228 228 229 229 229 225 221 220 218 218 222 219 217 216 214 219 224 222 222 226 228 230 230 233 241 246 249 251 251 251 245 236 230 221 216 216 213 207
72 90 118 223 248 229 224 237 243 236 226 228 232 229 227 227 227 231 238 239 236 236 233 223 178 162 226 278 299 313 292 278 267 259 266 274 279 273 262 250 248 246 240 237 237 234 232 230 228 229 231 233 229 221 221 222 221 222 220 222 222 218 216 218 221 225 228 230 233 234 236 242 246 248 251 251 250 248 242 238 230 221 217 217 214
60 68 95 82 44 57 231 259 257 252 236 235 242 233 224 217 216 228 238 243 238 220 211 211 192 172 174 210 122 339 302 296 280 244 249 272 280 279 282 282 272 269 260 252 248 240 235 233 229 226 227 229 232 231 229 227 226 224 221 221 224 224 222 219 219 223 227 230 230 231 237 245 250 249 250 251 251 249 246 243 238 230 222 219 217
61 56 71 81 73 67 54 55 65 56 89 167 21 357 317 113 68 320 260 288 290 126 135 177 196 196 192 175 144 221 340 2 334 250 256 271 267 282 303 307 308 312 306 294 282 274 268 251 234 225 223 227 231 234 239 236 232 228 221 219 224 228 229 227 224 224 226 229 231 230 234 244 250 251 250 250 251 250 248 246 241 236 229 223 221
72 70 74 80 82 81 69 68 70 58 49 57 42 17 4 41 40 29 42 19 355 143 164 175 185 206 207 205 197 146 136 356 343 303 302 280 266 284 311 313 319 321 315 310 302 296 295 290 274 245 220 219 230 233 237 243 240 231 225 228 234 237 238 236 233 231 230 230 233 233 232 240 246 249 249 248 249 250 248 246 243 239 233 228 224
81 80 79 79 83 80 61 56 66 63 57 58 43 24 19 30 30 26 34 33 32 95 140 146 136 174 197 205 222 204 183 194 220 283 316 288 275 287 303 314 319 310 300 307 313 302 295 307 308 287 250 225 230 232 233 239 241 236 234 239 243 243 245 246 240 236 234 233 234 234 232 236 241 244 247 247 248 249 248 247 244 240 235 230 227
92 88 84 80 80 76 63 57 63 67 71 66 49 37 35 35 33 28 30 34 33 55 91 102 104 96 97 142 195 204 199 205 216 241 265 266 281 287 295 316 319 309 301 304 313 304 299 313 310 297 294 283 259 248 238 238 242 239 238 242 246 246 247 249 247 241 238 235 233 234 233 233 236 241 244 244 244 246 247 246 246 244 240 234 228
100 96 93 89 84 80 74 66 59 60 64 65 57 49 44 39 41 40 39 41 36 37 50 57 67 73 70 88 137 183 190 197 226 241 252 259 265 257 271 308 313 308 306 306 303 298 302 311 307 296 293 290 283 272 258 252 251 243 238 240 242 244 247 248 249 247 242 235 231 231 232 233 234 237 242 245 244 244 244 243 245 246 243 240 234
110 105 100 97 93 87 83 76 67 65 67 71 69 64 59 53 52 50 47 47 45 43 42 39 43 44 32 29 34 231 188 179 235 257 279 280 275 273 278 293 297 291 297 301 293 284 287 290 290 292 285 281 284 274 261 260 259 250 245 244 239 238 247 248 246 246 241 235 231 228 228 232 234 234 237 242 242 243 244 242 243 243 241 239 236
121 118 111 106 101 95 92 88 81 77 76 76 73 71 71 66 61 58 53 51 47 47 45 40 38 39 31 24 24 17 5 355 335 323 318 306 303 303 296 297 297 293 296 296 282 277 285 279 269 277 279 274 272 263 253 253 253 252 251 251 243 240 251 251 243 243 240 237 234 230 227 228 231 231 233 237 237 237 241 240 237 236 233 229 228
135 130 125 119 112 106 102 95 89 86 83 81 77 75 73 69 66 63 58 55 50 47 47 41 35 35 32 26 25 25 16 7 3 344 325 324 320 304 302 308 305 301 303 301 287 277 277 269 255 263 268 263 259 256 253 250 248 249 249 250 250 248 254 255 247 245 243 241 237 234 233 231 232 230 229 233 234 233 236 235 230 226 226 225 222
150 146 143 137 129 122 113 103 97 91 88 85 82 80 79 76 73 68 64 60 55 53 51 46 40 35 29 22 20 25 26 12 351 335 329 328 317 306 312 317 311 305 303 297 291 280 267 254 245 249 254 254 253 248 247 251 254 253 243 243 253 258 259 257 252 249 246 245 242 240 239 237 236 234 229 230 232 234 234 232 231 228 226 227 226
162 159 157 153 145 137 129 118 111 104 99 95 88 84 83 82 79 74 71 65 61 58 53 49 46 39 31 24 19 19 18 9 351 336 329 326 323 322 321 315 306 300 298 297 300 297 287 269 251 250 255 259 261 256 253 258 265 272 262 248 254 265 266 263 255 249 248 250 251 249 245 240 238 236 232 229 229 232 233 232 233 233 231 231 231
169 167 165 163 157 150 143 136 131 124 115 108 100 94 88 88 87 82 78 74 69 66 57 51 47 38 33 24 15 18 13 2 354 342 338 339 333 324 318 314 311 303 300 308 305 299 305 308 296 281 277 276 275 270 272 273 269 274 274 262 259 264 268 270 262 253 252 256 257 256 253 247 241 237 234 232 228 228 231 233 234 235 235 235 234
171 169 169 169 165 160 156 150 146 140 133 126 118 112 105 101 100 96 95 90 83 78 67 58 51 40 34 24 13 20 13 357 352 350 345 338 328 320 313 310 314 315 314 313 304 303 315 318 315 309 306 307 299 289 302 303 279 277 281 271 264 263 262 262 261 259 256 259 261 260 257 252 247 242 238 236 233 229 229 231 234 236 236 236 235
172 171 173 174 172 170 167 163 159 153 148 143 137 133 126 118 116 113 113 112 104 98 88 76 67 52 40 30 19 15 9 359 353 349 345 338 329 323 316 314 313 311 314 315 313 317 322 316 308 308 320 331 329 318 312 300 280 286 290 279 273 269 263 259 260 261 262 265 268 266 261 255 250 247 243 241 240 235 232 232 233 236 236 237 237
174 173 175 175 176 177 174 172 170 165 160 156 152 151 147 143 139 135 134 134 131 124 114 105 94 76 56 40 27 16 1 352 343 339 340 336 331 323 317 313 308 302 305 308 306 309 312 310 303 304 314 323 326 319 308 296 291 298 296 285 282 280 279 278 271 265 267 271 271 268 266 259 252 249 246 243 241 240 237 235 235 235 236 237 238
178 177 178 178 178 180 180 180 177 174 170 165 163 163 162 162 160 159 159 157 157 152 143 138 137 132 120 61 17 11 349 334 323 320 324 322 322 321 317 312 305 301 298 295 291 296 303 307 306 306 307 307 309 308 303 294 290 293 290 283 278 275 277 279 277 275 276 275 270 266 265 261 255 251 248 245 242 240 239 239 238 236 236 237 238
185 181 181 182 182 182 184 184 183 181 178 174 172 172 171 174 175 174 173 178 182 176 173 174 176 193 221 237 255 290 317 320 311 298 296 295 296 299 301 302 299 294 289 284 283 288 294 297 297 298 300 301 301 298 295 292 288 289 287 281 276 274 273 273 273 274 275 272 265 261 263 261 257 254 253 251 248 245 243 242 242 241 238 236 237
192 188 187 187 186 187 188 188 187 186 183 181 179 179 180 181 182 181 180 187 193 188 192 202 199 202 241 264 261 256 280 303 303 294 285 275 274 277 276 276 280 283 284 284 285 289 291 293 294 294 296 298 296 292 290 289 289 290 288 284 281 276 272 270 269 268 267 265 260 257 258 260 258 256 254 253 253 252 248 246 244 244 242 238 236
199 195 193 191 190 190 191 191 192 191 189 188 185 185 187 185 183 184 186 193 198 196 199 211 210 206 228 264 270 261 273 287 286 288 290 284 280 281 280 281 283 284 286 287 288 290 292 294 295 294 293 291 290 290 291 290 291 291 288 286 282 277 274 272 271 270 269 267 259 252 252 257 262 262 258 254 253 252 251 249 248 247 246 244 239
208 204 201 197 194 194 195 195 194 194 194 193 190 191 191 189 187 188 191 196 199 199 205 215 215 212 221 245 257 255 263 277 280 284 288 285 283 286 286 285 283 282 281 280 280 283 287 291 292 292 294 293 290 289 290 289 288 287 286 285 281 277 274 272 271 271 271 270 263 253 252 258 263 265 264 259 254 252 251 251 251 249 247 247 244
217 214 212 208 202 198 198 197 197 197 197 195 194 195 194 192 193 193 193 197 199 202 208 212 215 220 229 240 246 245 254 270 278 283 286 285 288 291 291 287 282 282 281 276 274 278 283 287 289 290 292 292 290 288 289 288 286 284 283 284 282 279 277 274 272 271 271 270 262 252 251 255 261 265 265 261 256 253 251 250 251 251 250 248 247
222 222 221 218 212 206 202 200 199 198 198 197 195 196 196 194 195 195 195 196 199 203 206 210 217 226 231 239 242 243 254 266 274 283 290 296 297 296 294 293 291 291 290 285 282 281 283 285 288 289 290 289 289 288 288 288 288 286 284 283 283 283 282 280 277 275 278 278 270 264 264 264 266 268 267 263 258 255 253 252 250 251 251 250 249
223 221 221 222 220 215 209 205 202 200 198 197 196 196 196 195 195 197 197 197 198 201 204 210 218 222 224 233 238 241 249 259 270 280 289 294 295 295 295 295 294 294 293 289 285 283 282 284 286 288 288 288 288 288 287 285 285 287 286 286 284 282 280 277 272 269 269 272 270 268 267 265 264 266 267 265 262 258 257 255 252 251 251 251 250
233 226 222 222 226 225 219 212 207 202 198 196 196 195 194 194 195 196 196 196 197 199 203 209 215 216 220 228 229 231 242 252 260 274 288 293 293 292 294 294 294 294 292 290 288 285 283 282 283 284 285 286 287 286 287 287 285 282 282 283 284 283 280 278 279 276 270 268 268 266 265 261 258 261 267 271 270 264 258 256 254 252 251 251 251
240 235 226 222 229 232 226 217 211 206 200 196 193 192 191 191 192 194 194 196 197 197 201 207 210 211 217 223 224 227 229 226 230 252 274 282 287 291 293 294 295 294 292 290 289 286 283 282 281 281 282 283 283 283 286 287 285 283 286 290 292 292 290 287 288 287 282 278 275 271 269 262 253 253 261 267 271 268 261 257 256 256 255 252 251
241 240 232 224 230 235 230 219 213 209 207 202 191 186 186 185 186 190 194 197 199 197 199 204 205 208 215 218 219 221 220 224 243 266 268 265 272 282 287 292 296 295 294 292 290 287 286 284 283 283 283 281 281 283 285 285 285 289 294 297 294 291 290 286 282 279 277 277 274 271 270 264 253 251 256 260 264 265 260 254 252 255 257 255 252
246 243 239 234 234 234 226 217 211 209 211 207 192 182 179 178 181 187 190 194 199 199 199 202 204 208 216 220 224 227 231 245 268 277 267 265 278 281 279 286 294 297 296 293 290 288 286 285 284 285 284 282 282 284 285 285 287 288 289 290 288 289 290 287 285 281 276 274 273 270 267 265 263 261 260 259 259 258 254 250 249 254 258 257 255
252 249 243 240 237 230 222 222 217 209 208 204 191 181 177 178 180 183 186 191 197 200 200 203 209 215 222 228 233 237 241 253 269 272 266 277 290 285 276 282 291 293 293 290 287 286 285 283 282 282 282 281 282 284 284 286 286 284 285 285 285 287 289 287 288 288 285 284 285 281 275 271 270 270 269 266 264 260 253 246 244 249 256 260 260
252 251 245 238 235 229 226 226 215 199 198 200 192 186 185 186 180 175 184 193 195 200 204 207 215 223 228 231 235 240 243 247 256 264 270 280 286 279 273 282 286 286 285 281 278 279 281 282 282 279 278 280 283 283 284 289 292 292 291 289 286 287 286 285 285 285 287 295 295 288 281 277 275 274 272 269 267 265 259 251 243 242 249 257 263
245 248 243 237 238 231 218 209 196 190 201 202 194 192 195 192 181 175 187 197 195 202 207 209 219 229 236 242 243 245 250 253 256 260 265 274 281 278 278 284 284 283 282 277 271 269 270 273 276 276 275 277 279 280 282 291 298 298 293 287 285 284 281 278 279 280 286 298 302 294 283 277 274 271 268 266 264 264 261 256 252 249 248 253 261
237 238 236 235 239 232 217 210 205 203 206 201 196 196 196 192 186 184 192 196 194 205 213 213 224 235 239 247 251 254 258 258 260 263 265 273 281 282 282 283 283 285 284 280 276 270 264 262 265 269 272 273 275 276 279 285 290 290 290 289 290 290 288 284 281 281 284 292 299 295 285 278 275 272 268 265 263 264 261 253 248 250 251 250 255
239 237 234 233 234 231 227 222 210 197 196 198 198 197 192 187 183 181 185 191 194 213 224 223 230 238 243 248 252 257 261 263 265 265 264 270 279 284 286 286 286 286 284 279 276 271 265 261 260 262 267 271 273 273 275 278 282 286 291 293 295 297 295 290 283 279 278 279 280 279 276 274 273 270 269 267 263 264 263 251 242 243 246 247 251
244 240 236 234 230 228 228 217 197 189 198 201 197 191 184 177 173 172 181 194 203 220 229 231 237 241 245 248 252 257 261 263 266 267 267 271 277 283 286 287 288 286 282 279 277 274 271 268 265 265 267 270 271 271 273 275 278 283 289 290 291 291 286 281 277 274 273 270 265 263 267 270 268 266 268 267 262 260 259 250 239 237 244 250 256
246 241 239 237 231 227 220 201 184 188 197 195 188 180 175 170 165 166 186 201 214 229 231 235 242 246 249 251 254 261 264 265 270 275 278 278 277 281 285 286 288 287 285 285 284 282 279 276 273 272 270 271 272 273 275 275 276 279 281 279 278 276 273 270 270 271 271 269 261 257 261 265 263 262 266 267 262 258 256 249 237 234 243 253 257
248 245 243 239 232 224 208 191 183 187 187 182 177 173 170 166 160 167 200 215 225 237 240 243 247 252 258 257 258 262 264 267 271 274 276 276 276 280 282 284 288 288 289 290 290 288 285 282 280 279 276 275 276 276 276 275 276 275 271 267 265 264 262 263 267 270 271 268 264 260 262 266 265 262 265 268 264 257 253 248 238 233 239 250 259
253 248 242 235 226 211 189 174 175 182 180 174 171 169 166 163 161 168 208 238 242 247 253 259 260 263 269 273 275 272 266 265 265 266 269 271 274 278 281 284 287 287 290 292 290 289 289 287 286 284 281 279 278 276 274 272 273 271 265 261 259 256 256 258 261 266 270 267 262 260 261 265 267 263 262 266 266 260 253 244 235 227 221 244 269